Torna al catalogo

STARLINK-37115

AttivoComunicazioniSSO
NORAD 68297·PAYLOAD·🇺🇸 United States

Lanciato Mar 20, 2026 da Vandenberg Space Force Base

Loading…

Prossimi Passaggi (prossime 24 ore)

TLE

AggiornatoSource: CelesTrak SupGP

Epoca: Sep 15, 2026, 03:27 UTC

1 68297C 26057D   26258.14423611 -.00005225  00000+0 -16223-3 0  2587
2 68297  97.2851  23.5699 0000891  77.6706 131.3364 15.33437012    12

Traccia STARLINK-37115 in tempo reale con AllMySat

Download on the App Store